Tracking 19212 objects as of 17-Jul-2018
HD Live streaming from Space Station
objects crossing your sky now

FENGYUN 1C DEB

Track FENGYUN 1C DEB now!
10-day predictions


NORAD ID: 30636
Int'l Code: 1999-025ANT
Perigee: 526.5 km
Apogee: 615.3 km
Inclination: 98.7 °
Period: 95.9 minutes
Semi major axis: 6941 km
RCS: 0.0143 m2 (small)
Launch date: May 10, 1999
Source: People's Republic of China (PRC)
Launch site: Taiyaun Space Center, China (TSC)

Note: This is SATELLITE DEBRIS
aabbcc
Your satellite tracking list
Your tracking list is empty




NASA's NSSDC Master Catalog

Two Line Element Set (TLE):
1 30636U 99025ANT 18197.86297429 +.00002793 +00000-0 +21553-3 0  9996
2 30636 098.7323 167.2257 0063902 310.0622 049.5005 15.01016798611713
Source of the keplerian elements: AFSPC